星链-33984 (STARLINK-33984)

导读

STARLINK-33984是美国SpaceX公司星链(Starlink)星座中的一颗低轨通信卫星,于2025年5月4日由猎鹰9号火箭发射升空。它属于第二代星链卫星序列,运行在约500公里高度的近地轨道,配备激光星间链路与增强型相控阵天线,可提供高速低延迟的全球卫星互联网服务,是星链全球覆盖组网的重要组成部分,支撑民用宽带接入及特殊行业通信需求。

基本信息
目录编号:
63830
目录名称:
STARLINK-33984
国际标识:
2025-092AC
轨道中心:
EARTH
卫星名称:
星链-33984
卫星全名:
星链-33984 (STARLINK-33984)
卫星状态:
在轨 (已飞行406 天)
发射日期:
2025-05-04 UTC
国别 :
美国 (US)
星等 :
--
轨道信息
数据来源 国际轨道数据
星历时间: 2026-06-14T03:04:14+0800
8小时前
查看轨道信息
半长轴: 6861.16km
偏心率: 0.0000407
轨道倾角: 42.998°
近地点辐角 245.696°
升交点赤经 349.700°
平近点角 114.385°
近地点: 482.743km
远地点: 483.303km
周期: 94.266分钟
每日圈数: 15.275888
详细信息
固有亮度:
5
最大亮度:
2.5
卫星平台:
Starlink V1.0
覆盖范围:
全球
运营商:
太空探索技术公司
运营商所在国:
美国
制造商(研发单位):
太空探索技术公司
制造商所在国:
美国
使用方式:
暂无
卫星简介
Starlink 计划是 SpaceX 推出的全球卫星互联网项目,通过发射低轨道卫星,为全球尤其是偏远地区提供高速、低延迟的互联网服务。自 2019 年起,Starlink 已部署数千颗卫星,旨在缩小全球数字鸿沟,推动互联网普及。该项目还为军事、航空等行业提供通信支持,带来广泛经济效益。
2D轨道图
3D轨道图
轨道高度分析图
轨道倾角分析图
轨道综合分析图
查看轨道综合分析图